Weather in Ararat

Armenia     39°50′30″N   44°41′59″E
temp.,
°C
wind,
m/s
gust,
m/s
humid.,
%
clouds,
%
prec.,
mm/h
press.,
hPa
HPBL,
m
23 september, thu
thu2301:00+19nnw474367 0.1 1004126
04:00+18nnw575099 0.1 1006199
07:00+17n47540 0.0 1007198
10:00+22nnw32380 0.0 1006554
13:00+28se67259 0.0 10031188
16:00+31se8111596 0.0 9992903
19:00+28wsw461933 0.0 1000116
22:00+22ese12304 0.0 100114
24 september, fri
fri2401:00+22se342958 0.0 100242
04:00+20se22330 0.0 100223
07:00+18ne22380 0.0 100415
10:00+24n01280 0.0 1004628
13:00+29ese3919100 0.0 10013370
16:00+25nnw873095 0.0 1002606
19:00+19nw1214478 0.3 1006788
22:00+15nnw1014527 0.6 1011609
25 september, sat
sat2501:00+13n712648 0.4 1013527
04:00+13nnw586386 0.6 1014393
07:00+13nw34566 0.0 101581
10:00+17nw33383 0.0 1016625
13:00+21wnw12300 0.0 10131433
16:00+24nnw44230 0.0 10111651
19:00+20ne22255 0.0 101111
22:00+19nnw56260 0.0 1013100
26 september, sun
sun2601:00+17nnw711320 0.0 1015333
04:00+15nnw712370 0.0 1017332
07:00+13nnw611420 0.0 1019278
10:00+18nnw89290 0.0 1019848
13:00+23nnw66210 0.0 10171618
16:00+25nnw45170 0.0 10141761
19:00+20n11240 0.0 101411
22:00+18e11270 0.0 101411
27 september, mon
mon2701:00+17n22300 0.0 101511
04:00+15nnw22380 0.0 101517
07:00+13nnw23450 0.0 101525
10:00+19nw22310 0.0 1015533
13:00+24s11220 0.0 10111201
16:00+26s111766 0.0 10081283
19:00+21sw112367 0.0 100811
22:00+19e11260 0.0 100811